KOMPSAT

Satellite information

Favourite Embed

Satellite Type and Status

PAYLOADIN ORBIT

Key statistics

Satellite KOMPSAT at a glance.

Uptime

9442

Days in orbit

Revolutions

≈ 14.8

Per day

Orbit

SSO

Sun Synchronous Orbit

Inclination

98.3

Latest

Satellite identification and parameters

Extended collection of information and parameters for KOMPSAT.

Object identification

Identified? True

Debris? False

Object name: KOMPSAT

International designator: 1999-070A

Object number (NORAD): 26032

Object ID (CCSDS): 26032

Country: SOUTH KOREA (SKOR)

Current information (Y/N): Y

RCS size: LARGE

Orbital parameters

Period: 97.567 minutes

Inclination: 98.2825 deg

SMA: 7020.429 km

Apoapsis: 644.28 km

Periapsis: 640.307 km

RAAN: 100.4646 deg

Eccentricy: 0.000283

Argument of periapsis: 297.1373 deg

Mean anomaly: 62.9547 deg

Mean motion: 14.75901311 rev/day

Mean motion (dot): 0.0000227 rev/day2

B* drag term: 0.00033828317 1/REarth

Two-line elements (TLE)

Creation date: Oct. 27, 2025, 2:46 a.m.

Reference frame: TEME

Reference center: EARTH

Epoch: Oct. 26, 2025, 9:28 p.m. UTC

TLE line 0: 0 KOMPSAT

TLE line 1: 1 26032U 99070A 25299.89470324 .00002270 00000-0 33828-3 0 9990

TLE line 2: 2 26032 98.2825 100.4646 0002830 297.1373 62.9547 14.75901311659437

Live tracking on map

Real-time ground track for satellite KOMPSAT.

In-orbit conjunctions

There are no conjunctions computed for KOMPSAT, at the moment. Check back to stay up to date, as we update our databases every day.

Go to all conjunctions

Associated space launch

The KOMPSAT 1 (Korean Multi-purpose Satellite 1) Earth observation satellite was developed jointly by KARI and TRW. ACRIMSat (Active Cavity Radiometric Irradiance Monitor Satellite) was a satellite to ascertain the extent of solar radiation variability.

KOMPSAT was lifted into orbit during the mission ‘Taurus 2110 | Arirang-1 & ACRIMSat’, on board a Minotaur-C 2110 space rocket.

The launch took place on Dec. 21, 1999, 7:13 a.m. from Space Launch Complex 576E.

For more information about the launch, click the button.

Launch to space Taurus 2110 | Arirang-1 & ACRIMSat
Taurus 2110 | Arirang-1 & ACRIMSat

Agency: N/A

Status: Launch Successful

Launch date: Dec. 21, 1999, 7:13 a.m. UTC

Rocket: Minotaur-C 2110

Launch pad: Space Launch Complex 576E

Location: Vandenberg SFB, CA, USA

...

Latest news about this satellite

There are no fresh news available about this satellite. Check back as we update our databases every day.


Newsletter sign-up

Weekly statistics, charts and insights to help you stay on top of the space industry.